Weather in Sochi

Russia / Krasnodar Krai     43˚35′07″N   39˚43′23″E
temp.,
°C
wind,
m/s
gust,
m/s
humid.,
%
clouds,
%
prec.,
mm/h
press.,
hPa
HPBL,
m
2 december, wed
wed200:00+14˚e3555100 0.0 1020326
03:00+14˚e4554100 0.0 1020296
06:00+13˚e235598 0.0 1020283
09:00+13˚ese465893 0.0 1021439
12:00+14˚se225388 0.0 1021264
15:00+14˚sse126089 0.0 1021300
18:00+14˚ese125982 0.0 1022182
21:00+14˚ene115974 0.0 1022117
3 december, thu
thu300:00+14˚nne336197 0.0 1023121
03:00+15˚ene456498 0.0 1023150
06:00+14˚ene336678 0.0 1022107
09:00+14˚ene226480 0.0 102389
12:00+14˚sw116073 0.0 1023153
15:00+14˚s226657 0.0 1022239
18:00+14˚sw11660 0.0 1022274
21:00+13˚nne33702 0.0 1022160
4 december, fri
fri400:00+13˚ne226123 0.0 102298
03:00+13˚e225940 0.0 1022119
06:00+13˚e22600 0.0 1021131
09:00+12˚ne22590 0.0 1021118
12:00+13˚sse00590 0.0 1020105
15:00+13˚nw22680 0.0 1019203
18:00+13˚nnw33730 0.0 1020218
21:00+13˚nne11670 0.0 1020109
5 december, sat
sat500:00+13˚ene33570 0.0 1020106
03:00+13˚ene22550 0.0 1020103
06:00+13˚ne22530 0.0 101993
09:00+12˚ne22540 0.0 1019102
12:00+13˚wnw115219 0.0 1018136
15:00+13˚nw336517 0.0 1018301
18:00+13˚nw22650 0.0 1018181
21:00+13˚ene11620 0.0 101998
6 december, sun
sun600:00+13˚ne22540 0.0 1019102
03:00+12˚ne22520 0.0 102098
06:00+12˚nne44550 0.0 1020150
09:00+12˚nne33540 0.0 1020179
12:00+12˚sse11520 0.0 1020218
15:00+13˚nw22580 0.0 1019339
18:00+13˚ene21590 0.0 1020207
21:00+12˚ne33580 0.0 1020123